Weather History for Ardabil, Iran

Change the Weather History Date:

Thursday, April 25, 2013

  Actual Average Record
Temperature  
Mean Temperature 42 °F -  
Max Temperature 59 °F - - ()
Min Temperature 26 °F - - ()
Degree Days  
Heating Degree Days 22    
Moisture  
Dew Point 30 °F    
Average Humidity 58    
Maximum Humidity 100    
Minimum Humidity 33    
Precipitation  
Precipitation 0.00 in - - ()
Sea Level Pressure  
Sea Level Pressure 30.09 in    
Wind  
Wind Speed 4 mph ()    
Max Wind Speed 14 mph    
Max Gust Speed -    
Visibility 5.5 miles    
Events Fog    
T = Trace of Precipitation, MM = Missing Value Source: Averaged Metar Reports

Daily Weather History Graph

Daily Weather History Graph

Search for Another Location

Airport:

Trip Planner

Search our weather history database for the weather conditions in past years. The results will help you decide how hot, cold, wet, or windy it might be!

Date:

Astronomy

Apr. 25, 2013 Rise Set
Actual Time 6:27 AM IRDT 8:02 PM IRDT
Civil Twilight 5:59 AM IRDT 8:30 PM IRDT
Nautical Twilight 5:25 AM IRDT 9:03 PM IRDT
Astronomical Twilight 4:49 AM IRDT 9:39 PM IRDT
Moon 7:48 PM IRDT (4/25) 5:54 AM IRDT (4/25)
Length of Visible Light 14h 30m
Length of Day
13h 34m
Full, 100% of the Moon is Illuminated
Apr 25
Full
Apr 26
Full
May 2
Last Quarter
May 10
New
May 18
First Quarter

Hourly Weather History & Observations

Time (IRDT) Temp. Windchill Dew Point Humidity Pressure Visibility Wind Dir Wind Speed Gust Speed Precip Events Conditions
7:20 AM 26.6 °F - 24.8 °F 93% 30.15 in - Calm Calm - N/A   Clear
7:30 AM 26.6 °F - 24.8 °F 93% 30.15 in - Calm Calm - N/A   Clear
8:00 AM 28.4 °F - 26.6 °F 93% 30.15 in 4.3 mi Calm Calm - N/A   Unknown
8:20 AM 28.4 °F - 26.6 °F 93% 30.15 in 3.7 mi Calm Calm - N/A Fog Patches of Fog
8:30 AM 28.4 °F - 26.6 °F 93% 30.15 in 3.7 mi Calm Calm - N/A Fog Patches of Fog
9:00 AM 30.2 °F 25.4 °F 30.2 °F 100% 30.15 in 0.5 mi West 4.6 mph - N/A Fog Fog
9:20 AM 32.0 °F 27.5 °F 30.2 °F 93% 30.15 in 1.9 mi West 4.6 mph - N/A   Scattered Clouds
9:30 AM 32.0 °F 27.5 °F 30.2 °F 93% 30.15 in 1.9 mi West 4.6 mph - N/A   Scattered Clouds
10:20 AM 37.4 °F - 33.8 °F 87% 30.15 in - Calm Calm - N/A   Clear
10:30 AM 37.4 °F - 33.8 °F 87% 30.15 in - Calm Calm - N/A   Clear
11:30 AM 42.8 °F 38.6 °F 28.4 °F 57% 30.12 in 6.2 mi WSW 6.9 mph - N/A   Partly Cloudy
12:00 PM 44.6 °F 40.7 °F 30.2 °F 57% 30.12 in 6.2 mi West 6.9 mph - N/A   Scattered Clouds
12:20 PM 46.4 °F 42.9 °F 30.2 °F 53% 30.12 in 6.2 mi West 6.9 mph - N/A   Scattered Clouds
12:30 PM 46.4 °F 42.9 °F 30.2 °F 53% 30.12 in 6.2 mi West 6.9 mph - N/A   Scattered Clouds
1:00 PM 48.2 °F - 32.0 °F 54% 30.09 in 6.2 mi West 4.6 mph - N/A   Partly Cloudy
1:20 PM 48.2 °F - 32.0 °F 54% 30.09 in 6.2 mi West 6.9 mph - N/A   Partly Cloudy
1:30 PM 48.2 °F - 32.0 °F 54% 30.09 in 6.2 mi West 6.9 mph - N/A   Partly Cloudy
2:00 PM 51.8 °F - 33.8 °F 50% 30.09 in 6.2 mi WSW 9.2 mph - N/A   Partly Cloudy
2:20 PM 53.6 °F - 30.2 °F 41% 30.06 in 6.2 mi West 11.5 mph - N/A   Partly Cloudy
2:30 PM 53.6 °F - 30.2 °F 41% 30.06 in 6.2 mi West 11.5 mph - N/A   Partly Cloudy
3:00 PM 53.6 °F - 30.2 °F 41% 30.06 in 6.2 mi WSW 6.9 mph - N/A   Partly Cloudy
3:20 PM 55.4 °F - 33.8 °F 44% 30.06 in 6.2 mi WSW 6.9 mph - N/A   Partly Cloudy
3:30 PM 55.4 °F - 33.8 °F 44% 30.06 in 6.2 mi WSW 6.9 mph - N/A   Partly Cloudy
4:00 PM 55.4 °F - 30.2 °F 38% 30.04 in 6.2 mi SW 13.8 mph - N/A   Partly Cloudy
4:20 PM 57.2 °F - 30.2 °F 36% 30.04 in 6.2 mi WSW 6.9 mph - N/A   Partly Cloudy
4:30 PM 57.2 °F - 30.2 °F 36% 30.04 in 6.2 mi WSW 6.9 mph - N/A   Partly Cloudy
5:00 PM 59.0 °F - 30.2 °F 34% 30.04 in 6.2 mi WSW 9.2 mph - N/A   Partly Cloudy
5:20 PM 59.0 °F - 32.0 °F 36% 30.04 in 6.2 mi SSW 9.2 mph - N/A   Partly Cloudy
5:30 PM 59.0 °F - 32.0 °F 36% 30.04 in 6.2 mi SSW 9.2 mph - N/A   Partly Cloudy
6:20 PM 59.0 °F - 30.2 °F 34% 30.04 in 6.2 mi SW 6.9 mph - N/A   Scattered Clouds
6:30 PM 59.0 °F - 30.2 °F 34% 30.04 in 6.2 mi SW 6.9 mph - N/A   Scattered Clouds
7:20 PM 57.2 °F - 28.4 °F 33% 30.04 in 6.2 mi SSW 6.9 mph - N/A   Mostly Cloudy
7:30 PM 57.2 °F - 28.4 °F 33% 30.04 in 6.2 mi SSW 6.9 mph - N/A   Mostly Cloudy